Dewpoint
47 44 45 45 45 44 45 43 44 45 44 45 45 46 46 47 47 48 48 49 49 50 51 51 51 51 42 22 22 27 49 38 20 19 19 18 17 22 24 29 30 28 30 31 30 29 26
46 48 44 45 45 44 45 45 45 45 44 45 45 45 46 46 47 48 49 49 49 50 51 51 51 49 31 17 22 25 25 22 20 17 19 21 20 17 20 20 29 29 31 27 23 24 22
45 46 45 45 45 44 44 45 45 44 44 44 45 45 46 46 47 48 49 49 50 51 51 51 51 42 23 22 27 24 27 22 21 18 19 21 23 13 16 10 20 27 19 16 17 17 18
44 44 45 45 45 44 46 45 44 45 45 45 45 45 45 46 48 48 49 51 51 51 51 50 50 39 22 29 31 26 27 22 21 19 19 22 23 16 15 16 11 20 16 11 16 16 17
45 46 44 45 45 45 45 45 44 45 45 45 45 45 45 47 49 49 50 51 49 50 49 49 38 24 19 32 24 24 28 22 21 21 20 25 20 15 16 12 4 14 15 14 14 16 16
44 45 44 44 45 45 44 44 44 45 45 45 45 44 45 46 49 49 50 48 47 42 39 37 35 20 22 21 23 26 27 24 22 22 21 16 16 13 16 12 7 11 12 14 13 15 16
45 45 45 45 44 43 43 44 44 45 45 45 44 44 45 47 49 50 41 32 25 25 30 25 27 21 21 22 26 24 26 24 24 23 19 18 16 14 14 15 14 14 14 14 15 17 17
45 45 44 44 44 44 44 45 43 45 45 45 44 44 46 47 48 49 38 35 36 35 22 33 32 28 26 23 20 21 25 23 23 22 22 14 15 16 17 18 17 15 13 12 15 15 13
46 45 45 46 45 45 43 44 45 45 45 45 44 44 46 47 48 42 40 40 43 39 22 21 29 24 25 25 23 21 23 24 22 22 25 16 19 21 24 22 20 18 15 14 13 14 18
48 46 46 46 45 45 44 44 45 45 45 44 43 44 47 48 41 39 38 43 44 40 14 11 18 22 19 20 13 20 24 24 25 22 25 20 22 22 22 20 21 18 17 16 14 15 14
48 47 46 46 46 45 44 44 44 44 44 43 43 45 47 45 38 38 42 44 44 29 0 10 16 21 18 12 14 23 28 27 24 25 20 19 21 21 20 21 22 18 22 21 18 15 15
48 47 46 46 46 45 45 44 44 43 44 44 43 45 47 41 40 40 44 43 34 19 -5 15 18 19 18 19 21 25 30 31 29 25 25 24 25 23 23 24 23 22 22 23 21 18 16
48 48 46 46 45 45 44 44 43 43 43 42 44 46 44 42 35 43 42 33 20 6 16 14 16 20 19 19 21 28 29 29 27 15 23 25 22 24 26 20 20 21 24 19 15 17 15
48 48 47 46 45 45 43 45 44 43 43 43 45 45 42 42 42 42 35 23 -4 14 17 19 19 20 17 19 20 25 26 27 29 28 26 22 7 24 26 20 18 21 25 19 12 18 20
47 48 47 47 46 45 45 44 44 43 42 43 44 39 40 41 42 40 27 11 10 19 18 19 21 18 19 20 20 22 29 28 29 28 24 24 21 26 25 22 22 24 24 27 25 28 24
47 47 47 47 46 45 44 44 44 43 42 43 36 36 38 40 41 33 24 18 23 24 19 21 17 20 16 18 18 18 28 30 27 23 29 28 18 25 21 23 25 28 29 26 27 21 17
47 47 47 47 47 45 43 43 43 42 42 42 35 33 38 39 35 27 18 20 28 20 21 22 20 18 19 18 18 18 26 24 19 19 26 22 24 17 22 14 14 26 23 27 29 29 21
47 47 47 47 47 45 44 44 43 42 41 39 33 25 37 36 25 22 19 27 29 18 20 19 20 20 19 19 18 19 21 21 23 22 17 22 22 19 18 19 17 26 24 24 22 21 23
47 47 47 46 46 46 45 44 43 42 42 36 30 28 37 31 17 14 28 30 27 19 19 21 19 21 21 19 17 20 22 25 23 22 20 21 19 11 12 22 24 25 23 22 22 24 23
44 47 47 47 46 46 45 43 43 42 42 37 32 26 29 29 26 26 28 26 23 24 21 20 20 20 20 19 20 21 20 25 25 22 27 26 20 15 5 13 21 20 21 21 20 16 18
44 47 46 46 46 46 46 44 42 42 42 37 30 25 28 19 22 25 25 26 23 20 22 21 19 21 20 20 19 18 20 21 23 27 24 23 19 23 22 23 21 20 20 18 17 17 17
44 44 46 46 46 46 46 45 44 42 42 36 32 27 29 25 29 27 27 24 22 23 22 19 19 23 20 20 19 19 20 20 19 22 20 22 17 20 18 17 18 15 16 18 19 19 19
44 42 46 46 46 45 46 45 44 43 42 33 34 33 29 28 29 24 24 26 24 27 25 23 23 22 20 20 22 21 23 23 22 21 20 20 20 19 15 19 19 12 18 17 24 25 24
43 42 46 46 46 46 45 45 44 43 42 35 35 32 28 22 27 27 28 27 27 25 22 24 24 21 23 25 24 24 23 24 24 23 23 22 21 20 17 18 -1 13 29 28 27 25 27
43 42 46 46 46 45 45 45 44 43 44 37 38 34 27 19 29 29 29 28 29 30 24 24 25 25 27 23 22 14 15 19 22 24 24 23 22 14 9 17 17 21 28 26 24 24 25
43 41 46 46 45 45 44 45 44 44 44 40 39 37 32 26 26 30 30 29 28 27 25 25 28 28 27 24 18 5 5 15 17 24 26 24 24 18 15 10 9 17 26 26 29 23 25
43 41 47 46 45 45 44 44 44 44 43 41 38 38 32 26 28 30 27 29 28 26 25 26 26 25 26 20 8 13 17 20 17 18 22 21 22 15 17 16 19 23 24 26 22 20 24
43 42 46 46 45 45 44 44 44 44 43 41 37 39 35 29 29 32 32 28 27 27 25 26 24 25 23 14 16 15 18 21 22 23 22 21 19 19 21 18 13 24 20 20 23 22 25
43 43 46 45 44 44 44 44 44 44 43 40 33 38 40 34 29 35 35 34 31 29 28 27 25 25 26 21 17 19 19 19 22 17 21 18 21 20 21 20 23 23 22 22 22 23 26
Lifted_Index
12 12 13 13 12 12 11 11 12 12 13 13 14 14 15 15 15 15 15 15 14 14 14 13 13 12 12 11 12 14 15 16 16 14 13 11 10 8 7 7 7 6 7 7 8 8 8
12 12 12 13 13 12 12 12 12 12 13 14 14 14 15 15 15 15 14 14 14 14 13 13 13 13 12 12 13 14 15 15 15 14 13 12 11 10 8 8 8 7 7 7 8 8 8
12 12 12 13 13 13 12 12 12 13 13 14 14 14 15 15 14 14 14 14 13 13 13 12 13 13 13 13 13 14 14 15 15 14 13 13 12 11 10 9 9 8 7 7 7 8 8
12 12 12 13 13 13 13 13 13 13 13 14 14 14 14 14 14 14 13 13 13 12 12 12 12 13 12 13 13 13 14 14 14 14 14 14 13 12 10 9 8 7 6 6 7 8 8
12 12 12 13 13 13 13 13 13 13 13 14 14 14 14 14 13 13 13 13 12 12 12 12 12 12 12 12 13 13 13 13 14 14 13 13 12 11 9 7 6 5 5 4 6 8 8
12 12 12 13 13 13 13 13 13 13 14 14 14 14 14 13 13 13 12 12 12 12 11 12 12 11 12 12 12 12 12 13 13 12 11 10 9 8 7 6 4 4 4 4 5 7 7
12 12 12 13 13 13 13 13 13 14 14 14 14 15 14 13 13 12 12 11 11 11 11 11 11 11 11 12 12 12 12 12 11 10 8 8 6 6 6 6 6 5 4 4 6 8 7
12 12 12 13 13 13 13 13 13 14 14 14 15 15 14 13 12 12 12 12 12 11 11 11 11 12 12 11 11 11 11 11 9 7 7 6 6 7 8 8 7 6 4 5 7 8 9
12 12 12 12 13 13 13 13 13 14 14 14 15 15 14 13 12 12 12 12 12 11 10 10 11 11 12 11 11 11 11 10 8 7 6 6 7 9 9 8 6 6 6 6 7 8 8
11 12 12 12 12 13 13 13 13 14 14 15 15 14 14 13 12 12 12 12 11 10 8 8 10 11 11 11 11 11 11 10 8 7 6 7 8 9 8 7 7 7 8 9 8 7 6
11 11 12 12 12 13 13 13 14 14 14 15 15 14 13 12 12 12 11 11 10 7 5 7 10 11 11 11 11 10 10 10 8 8 7 8 9 9 8 8 9 9 9 10 9 8 7
11 11 12 12 12 13 13 14 14 14 14 14 14 14 13 12 12 11 10 9 7 5 4 6 8 9 10 10 10 9 9 9 8 7 7 8 9 9 9 9 10 10 9 8 7 6 5
11 11 12 12 12 12 13 13 14 14 14 14 14 13 13 12 11 10 9 7 5 4 4 6 7 8 8 8 8 8 8 7 7 6 6 6 8 10 10 10 10 9 7 5 3 3 3
11 11 11 12 12 12 13 13 14 14 14 14 13 12 12 11 10 9 8 6 4 3 5 6 6 6 6 7 7 7 6 6 7 6 5 4 6 9 10 10 9 8 7 4 2 2 2
11 11 11 12 12 12 12 13 13 14 14 14 13 11 11 11 10 8 7 5 4 4 5 5 5 5 5 6 7 7 6 7 8 8 6 5 6 9 10 10 8 8 7 5 4 3 2
11 11 11 12 12 12 13 13 13 14 14 13 12 11 11 11 10 8 6 4 4 5 6 5 5 4 5 5 6 6 6 7 9 9 9 7 7 9 10 9 8 8 7 6 5 3 2
10 11 11 11 12 12 13 13 13 14 14 13 12 10 10 10 9 7 5 4 5 7 7 6 5 5 5 5 6 6 6 8 9 10 10 9 7 7 8 8 8 8 8 7 5 3 2
10 10 11 11 12 12 12 13 13 14 14 13 11 9 9 9 8 6 5 5 6 7 7 6 6 6 6 6 6 6 7 8 10 10 10 9 7 5 6 8 8 8 8 8 6 4 4
10 10 10 11 11 12 12 13 13 13 14 13 10 9 9 9 7 5 5 5 6 6 7 7 7 7 7 6 6 6 7 9 10 10 10 9 7 4 5 7 8 8 8 8 7 6 4
10 10 9 10 11 11 12 12 13 13 13 12 10 8 8 8 7 5 5 5 5 6 7 7 7 7 7 7 6 7 8 9 10 11 11 9 7 5 5 6 7 7 8 8 8 6 5
9 9 9 9 10 11 11 12 13 13 13 12 10 8 8 7 6 6 5 5 5 5 6 7 7 7 6 6 6 7 8 9 10 11 11 9 7 5 6 6 7 7 7 8 7 7 6
7 8 8 9 9 10 11 11 12 13 13 12 10 9 8 7 6 6 5 5 5 5 6 6 6 6 7 7 7 8 9 9 10 10 10 8 6 5 6 6 6 6 6 7 7 7 7
5 6 7 8 9 9 10 11 12 12 13 12 11 10 8 7 6 6 5 5 5 6 6 7 7 7 8 8 9 9 10 10 10 10 9 8 6 5 5 5 5 5 6 7 7 7 7
4 5 6 7 8 9 10 10 11 12 13 12 11 10 9 7 7 6 6 6 6 7 7 7 8 8 9 10 10 9 9 9 9 10 9 8 7 5 4 4 4 5 7 7 7 7 7
3 4 5 6 7 8 9 10 11 11 12 12 11 10 9 8 7 7 7 7 7 7 7 8 9 9 10 10 8 7 7 7 8 9 9 9 8 6 4 3 4 5 7 8 7 7 7
3 3 4 5 6 7 8 9 10 11 11 12 11 10 9 9 8 8 8 8 8 7 8 8 9 10 10 9 7 5 4 5 5 6 8 8 7 6 4 3 4 6 7 7 7 7 7
2 2 2 4 5 7 8 9 9 10 11 11 11 10 9 9 9 9 8 8 8 8 8 8 9 9 9 8 6 5 4 5 5 5 6 7 6 5 4 4 4 6 7 7 7 7 8
2 2 2 3 5 6 7 8 9 10 10 11 11 10 9 9 9 9 9 8 8 8 8 8 9 9 8 8 7 6 5 5 5 5 6 6 5 5 5 4 5 7 8 8 8 8 8
2 2 1 2 4 6 7 8 9 9 10 11 11 10 9 9 9 10 9 9 8 8 8 8 9 9 8 8 7 7 6 6 5 5 6 6 5 5 5 5 7 8 8 8 9 9 9